Year,Month,Day,Hour,Minute,Value (Times are PST for temperature in C)
2007,12,16,00,00,6.70
2007,12,16,00,01,6.70
2007,12,16,00,02,6.70
2007,12,16,00,03,6.70
2007,12,16,00,04,6.70
2007,12,16,00,05,6.60
2007,12,16,00,06,6.60
2007,12,16,00,07,6.60
2007,12,16,00,08,6.60
2007,12,16,00,09,6.60
2007,12,16,00,10,6.60
2007,12,16,00,11,6.60
2007,12,16,00,12,6.60
2007,12,16,00,13,6.60
2007,12,16,00,14,6.60
2007,12,16,00,15,6.60
2007,12,16,00,16,6.60
2007,12,16,00,17,6.60
2007,12,16,00,18,6.60
2007,12,16,00,19,6.60
2007,12,16,00,20,6.60
2007,12,16,00,21,6.60
2007,12,16,00,22,6.60
2007,12,16,00,23,6.60
2007,12,16,00,24,6.60
2007,12,16,00,25,6.60
2007,12,16,00,26,6.60
2007,12,16,00,27,6.60
2007,12,16,00,28,6.60
2007,12,16,00,29,6.60
2007,12,16,00,30,6.60
2007,12,16,00,31,6.70
2007,12,16,00,32,6.70
2007,12,16,00,33,6.60
2007,12,16,00,34,6.60
2007,12,16,00,35,6.60
2007,12,16,00,36,6.60
2007,12,16,00,37,6.70
2007,12,16,00,38,6.70
2007,12,16,00,39,6.70
2007,12,16,00,40,6.70
2007,12,16,00,41,6.70
2007,12,16,00,42,6.70
2007,12,16,00,43,6.70
2007,12,16,00,44,6.70
2007,12,16,00,45,6.70
2007,12,16,00,46,6.70
2007,12,16,00,47,6.70
2007,12,16,00,48,6.70
2007,12,16,00,49,6.70
2007,12,16,00,50,6.70
2007,12,16,00,51,6.70
2007,12,16,00,52,6.70
2007,12,16,00,53,6.70
2007,12,16,00,54,6.80
2007,12,16,00,55,6.80
2007,12,16,00,56,6.80
2007,12,16,00,57,6.80
2007,12,16,00,58,6.80
2007,12,16,00,59,6.80
2007,12,16,01,00,6.80
2007,12,16,01,01,6.80
2007,12,16,01,02,6.80
2007,12,16,01,03,6.80
2007,12,16,01,04,6.80
2007,12,16,01,05,6.80
2007,12,16,01,06,6.80
2007,12,16,01,07,6.80
2007,12,16,01,08,6.80
2007,12,16,01,09,6.80
2007,12,16,01,10,6.80
2007,12,16,01,11,6.80
2007,12,16,01,12,6.80
2007,12,16,01,13,6.80
2007,12,16,01,14,6.80
2007,12,16,01,15,6.80
2007,12,16,01,16,6.80
2007,12,16,01,17,6.80
2007,12,16,01,18,6.80
2007,12,16,01,19,6.80
2007,12,16,01,20,6.80
2007,12,16,01,21,6.80
2007,12,16,01,22,6.80
2007,12,16,01,23,6.80
2007,12,16,01,24,6.80
2007,12,16,01,25,6.80
2007,12,16,01,26,6.80
2007,12,16,01,27,6.80
2007,12,16,01,28,6.80
2007,12,16,01,29,6.80
2007,12,16,01,30,6.80
2007,12,16,01,31,6.80
2007,12,16,01,32,6.80
2007,12,16,01,33,6.90
2007,12,16,01,34,6.80
2007,12,16,01,35,6.80
2007,12,16,01,36,6.80
2007,12,16,01,37,6.80
2007,12,16,01,38,6.80
2007,12,16,01,39,6.80
2007,12,16,01,40,6.80
2007,12,16,01,41,6.80
2007,12,16,01,42,6.80
2007,12,16,01,43,6.80
2007,12,16,01,44,6.80
2007,12,16,01,45,6.80
2007,12,16,01,46,6.80
2007,12,16,01,47,6.80
2007,12,16,01,48,6.80
2007,12,16,01,49,6.80
2007,12,16,01,50,6.80
2007,12,16,01,51,6.80
2007,12,16,01,52,6.80
2007,12,16,01,53,6.80
2007,12,16,01,54,6.80
2007,12,16,01,55,6.80
2007,12,16,01,56,6.80
2007,12,16,01,57,6.80
2007,12,16,01,58,6.80
2007,12,16,01,59,6.80
2007,12,16,02,00,6.80
2007,12,16,02,01,6.80
2007,12,16,02,02,6.80
2007,12,16,02,03,6.80
2007,12,16,02,04,6.80
2007,12,16,02,05,6.80
2007,12,16,02,06,6.80
2007,12,16,02,07,6.80
2007,12,16,02,08,6.80
2007,12,16,02,09,6.80
2007,12,16,02,10,6.80
2007,12,16,02,11,6.80
2007,12,16,02,12,6.80
2007,12,16,02,13,6.80
2007,12,16,02,14,6.80
2007,12,16,02,15,6.80
2007,12,16,02,16,6.80
2007,12,16,02,17,6.80
2007,12,16,02,18,6.80
2007,12,16,02,19,6.80
2007,12,16,02,20,6.80
2007,12,16,02,21,6.80
2007,12,16,02,22,6.80
2007,12,16,02,23,6.80
2007,12,16,02,24,6.80
2007,12,16,02,25,6.80
2007,12,16,02,26,6.80
2007,12,16,02,27,6.80
2007,12,16,02,28,6.80
2007,12,16,02,29,6.80
2007,12,16,02,30,6.80
2007,12,16,02,31,6.80
2007,12,16,02,32,6.80
2007,12,16,02,33,6.80
2007,12,16,02,34,6.80
2007,12,16,02,35,6.80
2007,12,16,02,36,6.80
2007,12,16,02,37,6.80
2007,12,16,02,38,6.80
2007,12,16,02,39,6.80
2007,12,16,02,40,6.80
2007,12,16,02,41,6.80
2007,12,16,02,42,6.80
2007,12,16,02,43,6.80
2007,12,16,02,44,6.80
2007,12,16,02,45,6.90
2007,12,16,02,46,6.90
2007,12,16,02,47,6.90
2007,12,16,02,48,6.90
2007,12,16,02,49,6.90
2007,12,16,02,50,6.90
2007,12,16,02,51,6.90
2007,12,16,02,52,7.00
2007,12,16,02,53,7.00
2007,12,16,02,54,7.00
2007,12,16,02,55,7.00
2007,12,16,02,56,7.00
2007,12,16,02,57,7.00
2007,12,16,02,58,7.00
2007,12,16,02,59,7.00
2007,12,16,03,00,7.00
2007,12,16,03,01,7.00
2007,12,16,03,02,7.00
2007,12,16,03,03,7.00
2007,12,16,03,04,7.00
2007,12,16,03,05,7.00
2007,12,16,03,06,7.00
2007,12,16,03,07,7.00
2007,12,16,03,08,7.00
2007,12,16,03,09,7.00
2007,12,16,03,10,7.00
2007,12,16,03,11,7.00
2007,12,16,03,12,7.00
2007,12,16,03,13,7.00
2007,12,16,03,14,7.00
2007,12,16,03,15,7.00
2007,12,16,03,16,7.00
2007,12,16,03,17,7.00
2007,12,16,03,18,7.00
2007,12,16,03,19,7.00
2007,12,16,03,20,7.00
2007,12,16,03,21,7.00
2007,12,16,03,22,7.00
2007,12,16,03,23,7.00
2007,12,16,03,24,7.00
2007,12,16,03,25,7.00
2007,12,16,03,26,7.00
2007,12,16,03,27,7.00
2007,12,16,12,48,10.10
2007,12,16,12,49,10.10
2007,12,16,12,50,10.00
2007,12,16,12,51,10.10
2007,12,16,12,52,10.10
2007,12,16,12,53,10.10
2007,12,16,12,54,10.10
2007,12,16,12,55,10.10
2007,12,16,12,56,10.10
2007,12,16,12,57,10.00
2007,12,16,12,58,10.00
2007,12,16,12,59,10.00
2007,12,16,13,00,10.00
2007,12,16,13,01,10.00
2007,12,16,13,02,10.00
2007,12,16,13,03,9.90
2007,12,16,13,04,9.90
2007,12,16,13,05,9.90
2007,12,16,13,06,9.90
2007,12,16,13,07,9.90
2007,12,16,13,08,9.90
2007,12,16,13,09,9.90
2007,12,16,13,10,10.00
2007,12,16,13,11,10.00
2007,12,16,13,12,10.00
2007,12,16,13,13,10.10
2007,12,16,13,14,10.10
2007,12,16,13,15,10.10
2007,12,16,13,16,10.10
2007,12,16,13,17,10.10
2007,12,16,13,18,10.10
2007,12,16,13,19,10.10
2007,12,16,13,20,10.10
2007,12,16,13,21,10.10
2007,12,16,13,22,10.10
2007,12,16,13,23,10.10
2007,12,16,13,24,10.10
2007,12,16,13,25,10.10
2007,12,16,13,26,10.10
2007,12,16,13,27,10.10
2007,12,16,13,28,10.10
2007,12,16,13,29,10.10
2007,12,16,13,30,10.10
2007,12,16,13,31,10.10
2007,12,16,13,32,10.10
2007,12,16,13,33,10.10
2007,12,16,13,34,10.10
2007,12,16,13,35,10.10
2007,12,16,13,36,10.10
2007,12,16,13,37,10.10
2007,12,16,13,38,10.10
2007,12,16,13,39,10.10
2007,12,16,13,40,10.10
2007,12,16,13,41,10.10
2007,12,16,13,42,10.00
2007,12,16,13,43,10.00
2007,12,16,13,44,10.00
2007,12,16,13,45,10.00
2007,12,16,13,46,10.00
2007,12,16,13,47,10.00
2007,12,16,13,48,10.00
2007,12,16,13,49,10.00
2007,12,16,13,50,10.00
2007,12,16,13,51,10.00
2007,12,16,13,52,10.00
2007,12,16,13,53,10.00
2007,12,16,13,54,9.90
2007,12,16,13,55,9.90
2007,12,16,13,56,9.90
2007,12,16,13,57,9.90
2007,12,16,13,58,9.90
2007,12,16,13,59,9.90
2007,12,16,14,00,9.80
2007,12,16,14,01,9.80
2007,12,16,14,02,9.80
2007,12,16,14,03,9.80
2007,12,16,14,04,9.80
2007,12,16,14,05,9.80
2007,12,16,14,06,9.80
2007,12,16,14,07,9.70
2007,12,16,14,08,9.70
2007,12,16,14,09,9.70
2007,12,16,14,10,9.70
2007,12,16,14,11,9.70
2007,12,16,14,12,9.60
2007,12,16,14,13,9.60
2007,12,16,14,14,9.60
2007,12,16,14,15,9.60
2007,12,16,14,16,9.50
2007,12,16,14,17,9.50
2007,12,16,14,18,9.50
2007,12,16,14,19,9.50
2007,12,16,14,20,9.50
2007,12,16,14,21,9.40
2007,12,16,14,22,9.40
2007,12,16,14,23,9.40
2007,12,16,14,24,9.40
2007,12,16,14,25,9.40
2007,12,16,14,26,9.40
2007,12,16,14,27,9.40
2007,12,16,14,28,9.40
2007,12,16,14,29,9.40
2007,12,16,14,30,9.30
2007,12,16,14,31,9.30
2007,12,16,14,32,9.40
2007,12,16,14,33,9.40
2007,12,16,14,34,9.40
2007,12,16,14,35,9.40
2007,12,16,14,36,9.40
2007,12,16,14,37,9.40
2007,12,16,14,38,9.40
2007,12,16,14,39,9.40
2007,12,16,14,40,9.40
2007,12,16,14,41,9.40
2007,12,16,14,42,9.40
2007,12,16,14,43,9.30
2007,12,16,14,44,9.30
2007,12,16,14,45,9.30
2007,12,16,14,46,9.30
2007,12,16,14,47,9.30
2007,12,16,14,48,9.30
2007,12,16,14,49,9.30
2007,12,16,14,50,9.30
2007,12,16,14,51,9.30
2007,12,16,14,52,9.30
2007,12,16,14,53,9.30
2007,12,16,14,54,9.30
2007,12,16,14,55,9.30
2007,12,16,14,56,9.20
2007,12,16,14,57,9.20
2007,12,16,14,58,9.20
2007,12,16,14,59,9.20
2007,12,16,15,00,9.20
2007,12,16,15,01,9.20
2007,12,16,15,02,9.20
2007,12,16,15,03,9.20
2007,12,16,15,04,9.10
2007,12,16,15,05,9.10
2007,12,16,15,06,9.10
2007,12,16,15,07,9.10
2007,12,16,15,08,9.10
2007,12,16,15,09,9.10
2007,12,16,15,10,9.00
2007,12,16,15,11,9.00
2007,12,16,15,12,9.00
2007,12,16,15,13,9.00
2007,12,16,15,14,9.00
2007,12,16,15,15,8.90
2007,12,16,15,16,8.90
2007,12,16,15,17,8.90
2007,12,16,15,18,8.90
2007,12,16,15,19,8.90
2007,12,16,15,20,8.80
2007,12,16,15,21,8.80
2007,12,16,15,22,8.80
2007,12,16,15,23,8.80
2007,12,16,15,24,8.80
2007,12,16,15,25,8.80
2007,12,16,15,26,8.80
2007,12,16,15,27,8.80
2007,12,16,15,28,8.80
2007,12,16,15,29,8.80
2007,12,16,15,30,8.80
2007,12,16,15,31,8.80
2007,12,16,15,32,8.80
2007,12,16,15,33,8.80
2007,12,16,15,34,8.80
2007,12,16,15,35,8.80
2007,12,16,15,36,8.90
2007,12,16,15,37,8.90
2007,12,16,15,38,8.90
2007,12,16,15,39,8.90
2007,12,16,15,40,8.90
2007,12,16,15,41,8.90
2007,12,16,15,42,8.90
2007,12,16,15,43,8.90
2007,12,16,15,44,8.90
2007,12,16,15,45,8.90
2007,12,16,15,46,8.90
2007,12,16,15,47,8.90
2007,12,16,15,48,8.90
2007,12,16,15,49,8.90
2007,12,16,15,50,8.90
2007,12,16,15,51,8.90
2007,12,16,15,52,8.90
2007,12,16,15,53,8.90
2007,12,16,15,54,8.90
2007,12,16,15,55,8.90
2007,12,16,15,56,8.90
2007,12,16,15,57,8.90
2007,12,16,15,58,8.90
2007,12,16,15,59,9.00
2007,12,16,16,00,9.00
2007,12,16,16,01,9.00
2007,12,16,16,02,9.00
2007,12,16,16,03,9.00
2007,12,16,16,04,8.90
2007,12,16,16,05,8.90
2007,12,16,16,06,8.90
2007,12,16,16,07,9.00
2007,12,16,16,08,9.00
2007,12,16,16,09,9.00
2007,12,16,16,10,8.90
2007,12,16,16,11,8.90
2007,12,16,16,12,8.90
2007,12,16,16,13,8.90
2007,12,16,16,14,8.90
2007,12,16,16,15,8.90
2007,12,16,16,16,8.90
2007,12,16,16,17,8.90
2007,12,16,16,18,8.90
2007,12,16,16,19,8.90
2007,12,16,16,20,8.90
2007,12,16,16,21,8.80
2007,12,16,16,22,8.80
2007,12,16,16,23,8.80
2007,12,16,16,24,8.80
2007,12,16,16,25,8.80
2007,12,16,16,26,8.80
2007,12,16,16,27,8.80
2007,12,16,16,28,8.80
2007,12,16,16,29,8.70
2007,12,16,16,30,8.70
2007,12,16,16,31,8.70
2007,12,16,16,32,8.70
2007,12,16,16,33,8.70
2007,12,16,16,34,8.70
2007,12,16,16,35,8.70
2007,12,16,16,36,8.70
2007,12,16,16,37,8.70
2007,12,16,16,38,8.70
2007,12,16,16,39,8.70
2007,12,16,16,40,8.60
2007,12,16,16,41,8.60
2007,12,16,16,42,8.60
2007,12,16,16,43,8.60
2007,12,16,16,44,8.60
2007,12,16,16,45,8.60
2007,12,16,16,46,8.60
2007,12,16,16,47,8.60
2007,12,16,16,48,8.50
2007,12,16,16,49,8.50
2007,12,16,16,50,8.50
2007,12,16,16,51,8.40
2007,12,16,16,52,8.40
2007,12,16,16,53,8.40
2007,12,16,16,54,8.40
2007,12,16,16,55,8.40
2007,12,16,16,56,8.40
2007,12,16,16,57,8.40
2007,12,16,16,58,8.30
2007,12,16,16,59,8.30
2007,12,16,17,00,8.30
2007,12,16,17,01,8.30
2007,12,16,17,02,8.30
2007,12,16,17,03,8.30
2007,12,16,17,04,8.20
2007,12,16,17,05,8.20
2007,12,16,17,06,8.20
2007,12,16,17,07,8.20
2007,12,16,17,08,8.10
2007,12,16,17,09,8.10
2007,12,16,17,10,8.10
2007,12,16,17,11,8.10
2007,12,16,17,12,8.00
2007,12,16,17,13,8.00
2007,12,16,17,14,8.00
2007,12,16,17,15,8.00
2007,12,16,17,16,7.90
2007,12,16,17,17,7.90
2007,12,16,17,18,7.80
2007,12,16,17,19,7.80
2007,12,16,17,20,7.80
2007,12,16,17,21,7.80
2007,12,16,17,22,7.80
2007,12,16,17,23,7.80
2007,12,16,17,24,7.80
2007,12,16,17,25,7.80
2007,12,16,17,26,7.80
2007,12,16,17,27,7.80
2007,12,16,17,28,7.80
2007,12,16,17,29,7.80
2007,12,16,17,30,7.80
2007,12,16,17,31,7.80
2007,12,16,17,32,7.80
2007,12,16,17,33,7.80
2007,12,16,17,34,7.80
2007,12,16,17,35,7.80
2007,12,16,17,36,7.80
2007,12,16,17,37,7.80
2007,12,16,17,38,7.80
2007,12,16,17,39,7.80
2007,12,16,17,40,7.80
2007,12,16,17,41,7.80
2007,12,16,17,42,7.80
2007,12,16,17,43,7.80
2007,12,16,17,44,7.80
2007,12,16,17,45,7.80
2007,12,16,17,46,7.80
2007,12,16,17,47,7.80
2007,12,16,17,48,7.70
2007,12,16,17,49,7.70
2007,12,16,17,50,7.70
2007,12,16,17,51,7.70
2007,12,16,17,52,7.70
2007,12,16,17,53,7.70
2007,12,16,17,54,7.70
2007,12,16,17,55,7.70
2007,12,16,17,56,7.70
2007,12,16,17,57,7.70
2007,12,16,17,58,7.70
2007,12,16,17,59,7.70
2007,12,16,18,00,7.70
2007,12,16,18,01,7.70
2007,12,16,18,02,7.70
2007,12,16,18,03,7.60
2007,12,16,18,04,7.60
2007,12,16,18,05,7.60
2007,12,16,18,06,7.60
2007,12,16,18,07,7.60
2007,12,16,18,08,7.50
2007,12,16,18,09,7.50
2007,12,16,18,10,7.50
2007,12,16,18,11,7.50
2007,12,16,18,12,7.50
2007,12,16,18,13,7.50
2007,12,16,18,14,7.50
2007,12,16,18,15,7.40
2007,12,16,18,16,7.40
2007,12,16,18,17,7.40
2007,12,16,18,18,7.40
2007,12,16,18,19,7.40
2007,12,16,18,20,7.40
2007,12,16,18,21,7.40
2007,12,16,18,22,7.30
2007,12,16,18,23,7.30
2007,12,16,18,24,7.30
2007,12,16,18,25,7.30
2007,12,16,18,26,7.30
2007,12,16,18,27,7.30
2007,12,16,18,28,7.30
2007,12,16,18,29,7.30
2007,12,16,18,30,7.30
2007,12,16,18,31,7.30
2007,12,16,18,32,7.30
2007,12,16,18,33,7.30
2007,12,16,18,34,7.30
2007,12,16,18,35,7.30
2007,12,16,18,36,7.30
2007,12,16,18,37,7.30
2007,12,16,18,38,7.30
2007,12,16,18,39,7.30
2007,12,16,18,40,7.40
2007,12,16,18,41,7.40
2007,12,16,18,42,7.40
2007,12,16,18,43,7.40
2007,12,16,18,44,7.40
2007,12,16,18,45,7.40
2007,12,16,18,46,7.30
2007,12,16,18,47,7.40
2007,12,16,18,48,7.30
2007,12,16,18,49,7.30
2007,12,16,18,50,7.30
2007,12,16,18,51,7.30
2007,12,16,18,52,7.30
2007,12,16,18,53,7.30
2007,12,16,18,54,7.30
2007,12,16,18,55,7.30
2007,12,16,18,56,7.30
2007,12,16,18,57,7.30
2007,12,16,18,58,7.30
2007,12,16,18,59,7.30
2007,12,16,19,00,7.30
2007,12,16,19,01,7.30
2007,12,16,19,02,7.30
2007,12,16,19,03,7.30
2007,12,16,19,04,7.40
2007,12,16,19,05,7.40
2007,12,16,19,06,7.40
2007,12,16,19,07,7.40
2007,12,16,19,08,7.40
2007,12,16,19,09,7.40
2007,12,16,19,10,7.40
2007,12,16,19,11,7.40
2007,12,16,19,12,7.40
2007,12,16,19,13,7.40
2007,12,16,19,14,7.40
2007,12,16,19,15,7.40
2007,12,16,19,16,7.40
2007,12,16,19,17,7.40
2007,12,16,19,18,7.40
2007,12,16,19,19,7.40
2007,12,16,19,20,7.40
2007,12,16,19,21,7.40
2007,12,16,19,22,7.40
2007,12,16,19,23,7.40
2007,12,16,19,24,7.40
2007,12,16,19,25,7.40
2007,12,16,19,26,7.30
2007,12,16,19,27,7.30
2007,12,16,19,28,7.30
2007,12,16,19,29,7.30
2007,12,16,19,30,7.30
2007,12,16,19,31,7.30
2007,12,16,19,32,7.20
2007,12,16,19,33,7.20
2007,12,16,19,34,7.20
2007,12,16,19,35,7.20
2007,12,16,19,36,7.20
2007,12,16,19,37,7.20
2007,12,16,19,38,7.20
2007,12,16,19,39,7.20
2007,12,16,19,40,7.20
2007,12,16,19,41,7.20
2007,12,16,19,42,7.20
2007,12,16,19,43,7.20
2007,12,16,19,44,7.20
2007,12,16,19,45,7.20
2007,12,16,19,46,7.20
2007,12,16,19,47,7.20
2007,12,16,19,48,7.20
2007,12,16,19,49,7.20
2007,12,16,19,50,7.20
2007,12,16,19,51,7.20
2007,12,16,19,52,7.20
2007,12,16,19,53,7.20
2007,12,16,19,54,7.20
2007,12,16,19,55,7.10
2007,12,16,19,56,7.20
2007,12,16,19,57,7.20
2007,12,16,19,58,7.20
2007,12,16,19,59,7.20
2007,12,16,20,00,7.20
2007,12,16,20,01,7.20
2007,12,16,20,02,7.20
2007,12,16,20,03,7.20
2007,12,16,20,04,7.20
2007,12,16,20,05,7.20
2007,12,16,20,06,7.20
2007,12,16,20,07,7.20
2007,12,16,20,08,7.20
2007,12,16,20,09,7.20
2007,12,16,20,10,7.20
2007,12,16,20,11,7.20
2007,12,16,20,12,7.20
2007,12,16,20,13,7.20
2007,12,16,20,14,7.20
2007,12,16,20,15,7.20
2007,12,16,20,16,7.20
2007,12,16,20,17,7.20
2007,12,16,20,18,7.10
2007,12,16,20,19,7.10
2007,12,16,20,20,7.10
2007,12,16,20,21,7.10
2007,12,16,20,22,7.10
2007,12,16,20,23,7.10
2007,12,16,20,24,7.00
2007,12,16,20,25,7.00
2007,12,16,20,26,7.00
2007,12,16,20,27,6.90
2007,12,16,20,28,6.90
2007,12,16,20,29,6.90
2007,12,16,20,30,6.90
2007,12,16,20,31,6.80
2007,12,16,20,32,6.80
2007,12,16,20,33,6.80
2007,12,16,20,34,6.80
2007,12,16,20,35,6.70
2007,12,16,20,36,6.70
2007,12,16,20,37,6.70
2007,12,16,20,38,6.70
2007,12,16,20,39,6.70
2007,12,16,20,40,6.60
2007,12,16,20,41,6.60
2007,12,16,20,42,6.60
2007,12,16,20,43,6.60
2007,12,16,20,44,6.60
2007,12,16,20,45,6.60
2007,12,16,20,46,6.60
2007,12,16,20,47,6.60
2007,12,16,20,48,6.60
2007,12,16,20,49,6.60
2007,12,16,20,50,6.60
2007,12,16,20,51,6.60
2007,12,16,20,52,6.60
2007,12,16,20,53,6.60
2007,12,16,20,54,6.60
2007,12,16,20,55,6.60
2007,12,16,20,56,6.60
2007,12,16,20,57,6.60
2007,12,16,20,58,6.60
2007,12,16,20,59,6.60
2007,12,16,21,00,6.50
2007,12,16,21,01,6.50
2007,12,16,21,02,6.50
2007,12,16,21,03,6.50
2007,12,16,21,04,6.50
2007,12,16,21,05,6.50
2007,12,16,21,06,6.50
2007,12,16,21,07,6.50
2007,12,16,21,08,6.50
2007,12,16,21,09,6.50
2007,12,16,21,10,6.50
2007,12,16,21,11,6.50
2007,12,16,21,12,6.50
2007,12,16,21,13,6.50
2007,12,16,21,14,6.50
2007,12,16,21,15,6.50
2007,12,16,21,16,6.50
2007,12,16,21,17,6.50
2007,12,16,21,18,6.50
2007,12,16,21,19,6.50
2007,12,16,21,20,6.50
2007,12,16,21,21,6.50
2007,12,16,21,22,6.50
2007,12,16,21,23,6.40
2007,12,16,21,24,6.40
2007,12,16,21,25,6.40
2007,12,16,21,26,6.40
2007,12,16,21,27,6.50
2007,12,16,21,28,6.50
2007,12,16,21,29,6.50
2007,12,16,21,30,6.50
2007,12,16,21,31,6.50
2007,12,16,21,32,6.50
2007,12,16,21,33,6.50
2007,12,16,21,34,6.60
2007,12,16,21,35,6.60
2007,12,16,21,36,6.60
2007,12,16,21,37,6.60
2007,12,16,21,38,6.60
2007,12,16,21,39,6.60
2007,12,16,21,40,6.70
2007,12,16,21,41,6.70
2007,12,16,21,42,6.70
2007,12,16,21,43,6.70
2007,12,16,21,44,6.70
2007,12,16,21,45,6.70
2007,12,16,21,46,6.70
2007,12,16,21,47,6.70
2007,12,16,21,48,6.80
2007,12,16,21,49,6.80
2007,12,16,21,50,6.80
2007,12,16,21,51,6.80
2007,12,16,21,52,6.80
2007,12,16,21,53,6.80
2007,12,16,21,54,6.80
2007,12,16,21,55,6.80
2007,12,16,21,56,6.80
2007,12,16,21,57,6.80
2007,12,16,21,58,6.80
2007,12,16,21,59,6.80
2007,12,16,22,00,6.80
2007,12,16,22,01,6.80
2007,12,16,22,02,6.80
2007,12,16,22,03,6.80
2007,12,16,22,04,6.80
2007,12,16,22,05,6.80
2007,12,16,22,06,6.80
2007,12,16,22,07,6.80
2007,12,16,22,08,6.80
2007,12,16,22,09,6.80
2007,12,16,22,10,6.80
2007,12,16,22,11,6.80
2007,12,16,22,12,6.80
2007,12,16,22,13,6.80
2007,12,16,22,14,6.80
2007,12,16,22,15,6.80
2007,12,16,22,16,6.80
2007,12,16,22,17,6.80
2007,12,16,22,18,6.80
2007,12,16,22,19,6.80
2007,12,16,22,20,6.80
2007,12,16,22,21,6.80
2007,12,16,22,22,6.80
2007,12,16,22,23,6.80
2007,12,16,22,24,6.90
2007,12,16,22,25,6.80
2007,12,16,22,26,6.80
2007,12,16,22,27,6.80
2007,12,16,22,28,6.80
2007,12,16,22,29,6.80
2007,12,16,22,30,6.80
2007,12,16,22,31,6.80
2007,12,16,22,32,6.80
2007,12,16,22,33,6.80
2007,12,16,22,34,6.80
2007,12,16,22,35,6.80
2007,12,16,22,36,6.80
2007,12,16,22,37,6.80
2007,12,16,22,38,6.80
2007,12,16,22,39,6.80
2007,12,16,22,40,6.80
2007,12,16,22,41,6.70
2007,12,16,22,42,6.80
2007,12,16,22,43,6.70
2007,12,16,22,44,6.70
2007,12,16,22,45,6.70
2007,12,16,22,46,6.70
2007,12,16,22,47,6.70
2007,12,16,22,48,6.70
2007,12,16,22,49,6.70
2007,12,16,22,50,6.70
2007,12,16,22,51,6.70
2007,12,16,22,52,6.70
2007,12,16,22,53,6.70
2007,12,16,22,54,6.70
2007,12,16,22,55,6.70
2007,12,16,22,56,6.70
2007,12,16,22,57,6.70
2007,12,16,22,58,6.70
2007,12,16,22,59,6.70
2007,12,16,23,00,6.70
2007,12,16,23,01,6.70
2007,12,16,23,02,6.70
2007,12,16,23,03,6.70
2007,12,16,23,04,6.70
2007,12,16,23,05,6.70
2007,12,16,23,06,6.70
2007,12,16,23,07,6.70
2007,12,16,23,08,6.70
2007,12,16,23,09,6.70
2007,12,16,23,10,6.70
2007,12,16,23,11,6.70
2007,12,16,23,12,6.70
2007,12,16,23,13,6.80
2007,12,16,23,14,6.70
2007,12,16,23,15,6.80
2007,12,16,23,16,6.80
2007,12,16,23,17,6.80
2007,12,16,23,18,6.80
2007,12,16,23,19,6.80
2007,12,16,23,20,6.80
2007,12,16,23,21,6.80
2007,12,16,23,22,6.80
2007,12,16,23,23,6.80
2007,12,16,23,24,6.80
2007,12,16,23,25,6.80
2007,12,16,23,26,6.80
2007,12,16,23,27,6.80
2007,12,16,23,28,6.80
2007,12,16,23,29,6.80
2007,12,16,23,30,6.80
2007,12,16,23,31,6.80
2007,12,16,23,32,6.80
2007,12,16,23,33,6.80
2007,12,16,23,34,6.80
2007,12,16,23,35,6.80
2007,12,16,23,36,6.80
2007,12,16,23,37,6.80
2007,12,16,23,38,6.80
2007,12,16,23,39,6.80
2007,12,16,23,40,6.70
2007,12,16,23,41,6.70
2007,12,16,23,42,6.70
2007,12,16,23,43,6.70
2007,12,16,23,44,6.70
2007,12,16,23,45,6.70
2007,12,16,23,46,6.60
2007,12,16,23,47,6.60
2007,12,16,23,48,6.60
2007,12,16,23,49,6.60
2007,12,16,23,50,6.50
2007,12,16,23,51,6.50
2007,12,16,23,52,6.50
2007,12,16,23,53,6.40
2007,12,16,23,54,6.40
2007,12,16,23,55,6.40
2007,12,16,23,56,6.40
2007,12,16,23,57,6.40
2007,12,16,23,58,6.40
2007,12,16,23,59,6.40
